Regional Weather Roundup
Issued by NWS

Home | Current Version | Previous Version | Graphics & Text | Print | Product List | Glossary On
Versions: 1 2 3 4 5 6 7 8 9 10 11 12 13 14 15 16 17 18 19 20 21 22 23 24 25 26 27 28 29 30 31 32 33 34 35 36 37 38 39 40 41 42 43 44 45 46 47 48 49 50
000
ASUS43 KMPX 281701
RWRMN
WEATHER ROUNDUP FOR MINNESOTA
NATIONAL WEATHER SERVICE TWIN CITIES/CHANHASSEN MN
1200 PM CDT THU APR 28 2016


NOTE: "FAIR" INDICATES FEW OR NO CLOUDS BELOW 12,000 FEET WITH NO
SIGNIFICANT WEATHER AND/OR OBSTRUCTIONS TO VISIBILITY. N/A MEANS
CURRENT SKY AND/OR WEATHER CONDITIONS ARE NOT AVAILABLE.

MNZ060>063-068>070-281800-
   Twin Cities Metro

CITY           SKY/WX    TMP DP  RH WIND       PRES   REMARKS
TWIN CITIES    CLOUDY    39  34  82 NE14      30.00R
ST PAUL        LGT RAIN  39  34  82 E8G18     30.02R
CRYSTAL        LGT RAIN  41  35  79 E8        29.99R
BLAINE         LGT RAIN  41  37  87 E14       30.00R
EDEN PRAIRIE   LGT RAIN  39  35  86 NE10      29.98R FOG
SOUTH ST PAUL  CLOUDY    39  37  90 E8        30.00R
LAKE ELMO      CLOUDY    41  36  81 E10       30.01R
$$
MNZ001>005-007-008-013>017-022>024-027-028-281800-
   Northwest Minnesota

CITY           SKY/WX    TMP DP  RH WIND       PRES   REMARKS
BEMIDJI        CLOUDY    48  20  33 E9        30.09S
HALLOCK        PTSUNNY   52  12  20 NE12      30.17R
ROSEAU         CLOUDY    48  28  46 NE12      30.17S
WARROAD        MOSUNNY   45  25  45 NE12G18   30.19R
THIEF RVR FALL CLOUDY    48  19  32 NE15      30.14S
CROOKSTON      CLOUDY    52  18  25 E13G18    30.12F
FOSSTON        PTSUNNY   48  21  34 NE12      30.10S
MOORHEAD       MOSUNNY   52  21  30 NE12G17   30.07S
PARK RAPIDS    CLOUDY    49  17  28 NE15      30.05S
MAHNOMEN       FAIR      47  20  34 E14       30.07S
$$
MNZ006-009>011-018-025>026-281800-
   North Central Minnesota

CITY           SKY/WX    TMP DP  RH WIND       PRES   REMARKS
BAUDETTE       CLOUDY    50  17  27 NE9       30.15S
FLAG ISLAND    MOSUNNY   45  19  36 N14       30.19S
INTL FALLS     MOSUNNY   48  21  34 NE10G17   30.15S
WASKISH        CLOUDY    50  21  32 N12G17    30.13S
BIG FORK       MOSUNNY   52  19  28 E10G16    30.11S
LONGVILLE      CLOUDY    48  18  29 NE13G20   30.06S
GRAND RAPIDS   CLOUDY    48  19  32 N10G17    30.09S
CRANE LAKE     MOSUNNY   46  18  31 NE3       30.16S
ORR            CLOUDY    48  14  25 NE5       30.10S
COOK           CLOUDY    46  21  36 NE5       30.12S
WALKER         PTSUNNY   45  19  36 NE10      30.08S
$$
MNZ012-019>021-037-281800-
   Northeast Minnesota

CITY           SKY/WX    TMP DP  RH WIND       PRES   REMARKS
DULUTH         PTSUNNY   46  24  42 E18G25    30.08R
ELY            CLOUDY    45  18  33 E6        30.12R
HIBBING        PTSUNNY   47  23  38 NE6       30.09S
EVELETH        CLOUDY    50  19  29 NE7G16    30.10S
DULUTH HARBOR  MOSUNNY   39  34  81 NE25G31   30.10S
TWO HARBORS    MOSUNNY   48  30  49 E14G20    30.10R
SILVER BAY     CLOUDY    45  21  39 NE15G23   30.11R
GRAND MARAIS     N/A     40  30  67 NE13G20   30.14S
G MARAIS ARPRT CLOUDY    43  19  39 NE10      30.12S
$$
MNZ029>031-032-039>041-046>048-054>057-064-281800-
   West Central Minnesota

CITY           SKY/WX    TMP DP  RH WIND       PRES   REMARKS
FERGUS FALLS   CLOUDY    46  21  36 E13       30.03R
WHEATON        CLOUDY    45  27  49 N7        30.06R
MORRIS         CLOUDY    43  28  56 E7        30.02R
ALEXANDRIA     CLOUDY    44  24  45 NE10      30.03R
ELBOW LAKE     CLOUDY    43  26  50 NE7       30.03R
WADENA         PTSUNNY   46  19  34 NE14G21   30.03R
GLENWOOD       CLOUDY    43  28  56 E14       30.02R
APPLETON       LGT SNOW  34  32  93 NE3       30.04R VSB 1
BENSON         LGT SNOW  34  32  93 CALM      30.03R
ORTONVILLE     HVY RAIN  36  32  87 CALM      30.04R
MADISON        LGT RAIN  36  36 100 NE9       30.03R
WILLMAR        LGT SNOW  34  34 100 NE6       30.02R WCI  29
$$
MNZ033>034-036-042>043-049>051-058-059-281800-
   Central Minnesota

CITY           SKY/WX    TMP DP  RH WIND       PRES   REMARKS
ST CLOUD       LGT RAIN  42  29  59 E9        30.02R
SAUK CENTRE    CLOUDY    43  27  53 E13       30.02R
PAYNESVILLE    RAIN      37  33  87 NE8       30.02R
AITKIN         CLOUDY    52  16  24 E12       30.03R
PINE RIVER     CLOUDY    48  25  40 E16G22    30.08S
BRAINERD       CLOUDY    49  19  30 NE17G23   30.04R
STAPLES        CLOUDY    46  18  31 E9        30.04R
LONG PRAIRIE   CLOUDY    43  27  52 NE9       30.02R
LITTLE FALLS   CLOUDY    45  25  45 NE7       30.03R
LITCHFIELD     LGT SNOW  36  36 100 NE7       30.01R
BUFFALO        LGT RAIN  38  35  86 NE13      30.01R
MAPLE LAKE     LGT RAIN  40  37  89 NE13      30.02R
HUTCHINSON     LGT RAIN  37  36  95 NE14      30.00R
$$
MNZ037-044-045-052-053-281800-
   East Central Minnesota

CITY           SKY/WX    TMP DP  RH WIND       PRES   REMARKS
PRINCETON      MIX PCPN  46  27  46 E10       30.02R
MORA           CLOUDY    48  23  37 NE7       30.04R
CAMBRIDGE      LGT RAIN  45  30  57 E6        30.01R
RUSH CITY      CLOUDY    47  25  41 E7        30.03R
MOOSE LAKE     CLOUDY    48  30  49 E6        30.04R
HINCKLEY       CLOUDY    52  27  37 E8        30.02S
CLOQUET        CLOUDY    45  19  36 E13       30.06S
MCGREGOR       CLOUDY    52  23  32 E21G26    30.05R
$$
MNZ071>073-080-081-089-090-097-098-281800-
   Southwest Minnesota

CITY           SKY/WX    TMP DP  RH WIND       PRES   REMARKS
MONTEVIDEO     LGT SNOW  34  34 100 E5        30.04R VSB 1   WCI  30
GRANITE FALLS  LGT SNOW  34  33  95 N6        30.02R VSB 3/4 WCI  29
CANBY          DRIZZLE   40  37  87 NE10      30.02R
MARSHALL       CLOUDY    37  33  85 NE15      29.99R
REDWOOD FALLS  CLOUDY    38  34  85 NE8       29.98R
OLIVIA         CLOUDY    34  32  93 NE7       29.99R WCI  28
PIPESTONE      CLOUDY    37  36  93 NE8       29.95R
WINDOM         DRIZZLE   39  37  93 N9        29.94R
WORTHINGTON    CLOUDY    39  35  86 NE14      29.94R
JACKSON        LGT RAIN  41  36  81 NE13      29.93R
TRACY          CLOUDY    39  35  85 NE14      29.97R
SLAYTON        CLOUDY    37  37 100 N10       29.95R FOG
$$
MNZ065>067-074>077-082>085-091>093-281800-
   South Central Minnesota

CITY           SKY/WX    TMP DP  RH WIND       PRES   REMARKS
MANKATO        CLOUDY    39  34  81 NE15      29.95R
NEW ULM        CLOUDY    37  36  93 NE9       29.97R
ST JAMES       CLOUDY    36  30  80 NE10      29.95R
FAIRMONT       CLOUDY    41  28  60 NE10      29.92R
GLENCOE        DRIZZLE   39  38  95 NE5G16    29.98R
OWATONNA       CLOUDY    41  34  75 NE12      29.93R
WASECA         CLOUDY    39  34  81 NE12G22   29.94R
$$
MNZ078>079-086>088-094>096-281800-
   Southeast Minnesota

CITY           SKY/WX    TMP DP  RH WIND       PRES   REMARKS
ROCHESTER      CLOUDY    41  35  79 NE14      29.92R
RED WING       CLOUDY    41  32  70 E12G17    29.97R
STANTON        CLOUDY    40  34  80 NE8       29.95S
DODGE CENTER   CLOUDY    39  36  87 E15       29.92R
WINONA         CLOUDY    43  32  65 E9G16     29.96R
AUSTIN         CLOUDY    41  36  81 E10G16    29.90R
PRESTON        CLOUDY    41  33  72 E9        29.91R
$$
ABBREVIATIONS USED IN REMARKS
   TC - TEMPERATURES IN CELSIUS
  WCI - WIND CHILL INDEX
   HX - HEAT INDEX
  VSB - VISIBILITY
$$



USA.gov is the U.S. government's official web portal to all federal, state and local government web resources and services.